EW3238 Weather Reports


Display with metric or nautical units.
time (UTC)temp
F
wind
direction
speed
MPH
gust
MPH
rain 1hr
in
rain 24hr
in
rain mn
in
humidity
%
barometer
mb
20200219103018 0 0.0 0.0 0.00 0.05 0.00 1025.1
20200219101510 0 0.0 0.0 0.00 0.05 0.00 1024.9
20200219100011 45 314 1.0 5.0 0.00 0.05 0.00 69 1025.2
20200219094504 46 314 2.0 5.0 0.00 0.05 0.00 69 1025.0
20200219093005 46 314 2.0 5.0 0.00 0.05 0.00 69 1025.1
20200219091503 46 314 2.0 5.0 0.00 0.05 0.00 69 1024.9
20200219090002 46 314 3.0 6.0 0.00 0.05 0.00 69 1025.1
20200219084820 46 314 2.0 6.0 0.00 0.05 0.00 69 1025.4
20200219083348 47 314 1.0 4.0 0.00 0.05 0.00 69 1025.3
20200219081733 47 314 2.0 6.0 0.00 0.05 0.00 69 1025.3
20200219080129 47 314 1.0 5.0 0.00 0.05 0.00 69 1025.6
20200219074613 47 314 1.0 5.0 0.00 0.05 0.00 69 1025.1
20200219073201 48 314 1.0 4.0 0.00 0.05 0.00 69 1025.1
20200219071626 48 314 3.0 7.0 0.00 0.05 0.00 69 1025.3
20200219070214 48 314 2.0 5.0 0.00 0.05 0.00 70 1024.9
20200219064741 49 314 3.0 6.0 0.00 0.05 0.00 69 1025.2
20200219063121 49 314 2.0 5.0 0.00 0.05 0.00 69 1025.6
20200219061612 49 314 2.0 6.0 0.00 0.05 0.00 69 1025.4
20200219060044 50 314 1.0 6.0 0.00 0.05 0.00 69 1025.2
20200219054541 50 314 3.0 6.0 0.00 0.05 0.05 69 1025.4
20200219053043 50 314 3.0 7.0 0.00 0.05 0.05 69 1025.5
20200219050154 50 314 3.0 6.0 0.00 0.05 0.05 69 1025.2
20200219044605 50 314 2.0 8.0 0.00 0.05 0.05 69 1025.0
20200219043029 50 314 3.0 9.0 0.00 0.05 0.05 68 1025.0
20200219041513 51 314 2.0 6.0 0.00 0.05 0.05 68 1024.8
20200219040033 51 314 3.0 6.0 0.00 0.05 0.05 67 1024.5
20200219034522 51 314 3.0 6.0 0.00 0.05 0.05 67 1024.5
20200219033002 51 314 2.0 7.0 0.00 0.05 0.05 67 1024.2
20200219031714 51 314 2.0 6.0 0.00 0.05 0.05 68 1024.1
20200219030100 51 314 2.0 6.0 0.00 0.05 0.05 67 1023.7
20200219024612 51 314 1.0 5.0 0.00 0.05 0.05 68 1023.9
20200219021538 51 314 1.0 4.0 0.00 0.05 0.05 67 1023.3
20200219020100 51 314 1.0 4.0 0.00 0.05 0.05 68 1023.2
20200219014619 51 314 1.0 4.0 0.00 0.05 0.05 68 1022.9
20200219013113 51 314 2.0 5.0 0.00 0.05 0.05 67 1022.4
20200219011612 51 314 2.0 5.0 0.00 0.05 0.05 67 1022.3
20200219010126 51 314 1.0 4.0 0.00 0.05 0.05 68 1022.1
20200219004558 51 314 1.0 5.0 0.00 0.05 0.05 68 1022.1
20200219003137 51 314 1.0 4.0 0.00 0.05 0.05 68 1021.9
20200219001601 51 314 2.0 5.0 0.00 0.05 0.05 68 1021.4
20200219000125 51 314 1.0 5.0 0.00 0.05 0.05 68 1021.4
20200218234502 52 314 1.0 4.0 0.00 0.05 0.05 68 1021.3
20200218233230 52 314 2.0 4.0 0.00 0.05 0.05 69 1021.1
20200218231520 52 314 1.0 3.0 0.00 0.05 0.05 68 1021.2
20200218230025 52 314 1.0 3.0 0.00 0.05 0.05 68 1020.8
20200218224510 52 314 1.0 3.0 0.00 0.05 0.05 69 1020.4
20200218223015 52 314 2.0 5.0 0.00 0.05 0.05 68 1019.9
20200218220210 51 314 2.0 5.0 0.00 0.05 0.05 68 1020.4
20200218213218 50 314 3.0 6.0 0.00 0.05 0.05 68 1019.1
20200218211615 50 314 3.0 7.0 0.00 0.05 0.05 67 1019.6
20200218210129 50 314 2.0 5.0 0.00 0.05 0.05 64 1019.7
20200218204714 49 314 2.0 5.0 0.00 0.05 0.05 66 1019.7
20200218203030 49 314 1.0 4.0 0.00 0.05 0.05 59 1019.5
20200218201543 48 314 3.0 5.0 0.00 0.05 0.05 51 1018.7
20200218200021 47 314 2.0 6.0 0.00 0.05 0.05 49 1018.8
20200218194515 47 314 3.0 6.0 0.00 0.05 0.05 50 1018.1
20200218193022 46 314 3.0 6.0 0.00 0.05 0.05 39 1018.9
20200218191514 46 314 2.0 7.0 0.05 0.05 0.05 37 1018.5
20200218190147 46 314 3.0 6.0 0.05 0.05 0.05 46 1018.2
20200218184714 46 134 2.0 7.0 0.05 0.05 0.05 37 1019.4
20200218183208 46 314 2.0 7.0 0.05 0.05 0.05 42 1019.2
20200218181649 47 314 2.0 7.0 0.00 0.00 0.00 48 1019.5
20200218174619 48 314 3.0 10.0 0.00 0.00 0.00 58 1019.1
20200218173122 48 314 3.0 9.0 0.00 0.00 0.00 56 1018.8
20200218171613 48 314 4.0 9.0 0.00 0.00 0.00 54 1018.6
20200218170215 48 314 5.0 8.0 0.00 0.00 0.00 32 1018.3
20200218164618 47 314 5.0 9.0 0.00 0.00 0.00 20 1018.6
20200218163118 48 314 3.0 8.0 0.00 0.00 0.00 22 1017.9
20200218161502 48 314 4.0 9.0 0.00 0.00 0.00 22 1017.6
20200218160212 49 314 5.0 9.0 0.00 0.00 0.00 22 1017.1
20200218154510 50 314 4.0 10.0 0.00 0.00 0.00 21 1017.0
20200218153007 51 314 3.0 9.0 0.00 0.00 0.00 18 1016.8
20200218151505 53 314 5.0 8.0 0.00 0.00 0.00 16 1016.5
20200218150220 54 134 4.0 9.0 0.00 0.00 0.00 14 1016.0
20200218144708 56 314 3.0 7.0 0.00 0.00 0.00 14 1015.7
20200218143111 57 314 3.0 7.0 0.00 0.00 0.00 16 1015.7
20200218141720 57 314 2.0 6.0 0.00 0.00 0.00 15 1015.1
20200218140209 57 314 2.0 5.0 0.00 0.00 0.00 15 1014.8
20200218134624 57 314 1.0 5.0 0.00 0.00 0.00 15 1014.5
20200218133132 58 314 1.0 6.0 0.00 0.00 0.00 20 1014.0
20200218131602 59 314 1.0 4.0 0.00 0.00 0.00 44 1013.9
20200218130050 59 314 1.0 3.0 0.00 0.00 0.00 59 1013.6
20200218124745 59 315 0.0 2.0 0.00 0.00 0.00 63 1013.1
20200218123136 60 314 0.0 2.0 0.00 0.00 0.00 65 1012.8
20200218121547 60 314 0.0 4.0 0.00 0.00 0.00 66 1012.4
20200218120010 60 314 0.0 2.0 0.00 0.00 0.00 66 1012.4
20200218113054 60 314 0.0 1.0 0.00 0.00 0.00 67 1011.9
20200218111559 61 314 0.0 2.0 0.00 0.00 0.00 67 1011.7
20200218110430 61 314 0.0 3.0 0.00 0.00 0.00 66 1011.2
20200218104611 61 134 0.0 1.0 0.00 0.00 0.00 62 1011.3